Flag for Bosnia-Herzegovina Weather past 2 weeks in Mostar, Bosnia-Herzegovina

Now
52 °F

Partly sunny.


Feels Like: 48 °F
Forecast: 44 / 67 °F
Wind: 10 mph from Northwest

Location: Mostar


UV Index: 0 (Low)

Visibility: N/A


Pressure: 29.83 "Hg

Humidity: 41%

Dew point: 28 °F

Location of MostarLocation

Historic Weather in Mostar

°F

Mostar temperature yesterday

Maximum temperature yesterday: 54 °F (at 12:00 PM)
Minimum temperature yesterday: 48 °F (at 4:00 AM)
Average temperature yesterday: 51 °F

Past Weeks' High & Low Weather Summary

 TemperatureHumidityPressure
High75 °F (Apr 8, 2:30 PM)100% (Apr 2, 8:00 AM)30.09 "Hg (Apr 2, 8:00 AM)
Low37 °F (Apr 12, 5:00 AM)27% (Apr 4, 4:00 PM)29.68 "Hg (Apr 4, 5:30 PM)
Average57 °F58%29.94 "Hg
* Reported Apr 2 8:00 AM — Apr 17 8:00 AM, Mostar, Weather by CustomWeather, © 2014

Note: Actual official high and low records may vary slightly from our data, if they occured in-between our weather recording intervals... More about our weather records

Advertising

Historic Weather Conditions — Data for Previous 24 hours

 ConditionsComfort  
Time TempWeatherWind HumidityBarometerVisibility
8:00 AM
Apr 17
50 °FScattered clouds.5 mph50%29.80 "HgN/A
7:00 AM48 °FPassing clouds.6 mph54%29.80 "HgN/A
6:00 AM50 °FPassing clouds.10 mph50%29.80 "HgN/A
4:00 AM46 °FPassing clouds.1 mph71%29.83 "HgN/A
2:00 AM50 °FPassing clouds.8 mph58%29.86 "HgN/A
1:00 AM46 °FPassing clouds.1 mph71%29.86 "HgN/A
12:00 AM48 °FPassing clouds.5 mph62%29.86 "HgN/A
11:00 PM
Apr 16
48 °FPassing clouds.7 mph62%29.86 "HgN/A
10:00 PM50 °FPassing clouds.8 mph58%29.89 "HgN/A
9:00 PM50 °FPassing clouds.9 mph54%29.89 "HgN/A
8:00 PM52 °FScattered clouds.8 mph50%29.86 "HgN/A
7:00 PM52 °FScattered clouds.7 mph47%29.86 "HgN/A
6:00 PM54 °FScattered clouds.14 mph41%29.86 "HgN/A
5:00 PM54 °FScattered clouds.25 mph41%29.83 "HgN/A
4:00 PM54 °FScattered clouds.24 mph38%29.83 "HgN/A
2:00 PM54 °FScattered clouds.29 mph35%29.83 "HgN/A
1:00 PM54 °FScattered clouds.31 mph38%29.86 "HgN/A
12:00 PM54 °FScattered clouds.23 mph33%29.86 "HgN/A
11:30 AM52 °FScattered clouds.22 mph41%29.86 "HgN/A
11:00 AM52 °FScattered clouds.6 mph41%29.86 "HgN/A
10:30 AM52 °FScattered clouds.17 mph41%29.86 "HgN/A
10:00 AM52 °FScattered clouds.20 mph41%29.86 "HgN/A
9:30 AM52 °FScattered clouds.17 mph41%29.86 "HgN/A
9:00 AM50 °FScattered clouds.28 mph43%29.86 "HgN/A
Weather by CustomWeather, © 2014

See weather overview